EW8163 Weather Reports


Display with metric or nautical units.
time (UTC)temp
F
wind
direction
speed
MPH
gust
MPH
rain 1hr
in
rain 24hr
in
rain mn
in
humidity
%
barometer
mb
20260905113218 38 157 0.0 0.0 0.00 0.00 0.00 97 1018.9
20260905112217 39 157 0.0 0.0 0.00 0.00 0.00 97 1019.0
20260905111217 39 157 0.0 0.0 0.00 0.00 0.00 97 1019.0
20260905110315 39 157 0.0 0.0 0.00 0.00 0.00 97 1019.1
20260905105316 39 157 0.0 0.0 0.00 0.00 0.00 97 1019.1
20260905104316 39 157 0.0 0.0 0.00 0.00 0.00 96 1019.1
20260905103316 39 157 0.0 0.0 0.00 0.00 0.00 96 1019.0
20260905102316 39 157 0.0 0.0 0.00 0.00 0.00 97 1019.1
20260905102217 39 157 0.0 0.0 0.00 0.00 0.00 97 1019.1
20260905101216 40 157 0.0 0.0 0.00 0.00 0.00 97 1019.1
20260905100216 40 157 0.0 0.0 0.00 0.00 0.00 97 1019.1
20260905095214 40 157 0.0 0.0 0.00 0.00 0.00 97 1019.2
20260905094216 40 157 0.0 0.0 0.00 0.00 0.00 95 1019.3
20260905092318 40 157 0.0 0.0 0.00 0.00 0.00 95 1019.3
20260905091316 41 157 0.0 0.0 0.00 0.00 0.00 96 1019.3
20260905090316 41 157 0.0 0.0 0.00 0.00 0.00 95 1019.4
20260905084315 41 157 0.0 0.0 0.00 0.00 0.00 95 1019.6
20260905083414 41 157 0.0 0.0 0.00 0.00 0.00 95 1019.7
20260905081416 42 157 0.0 0.0 0.00 0.00 0.00 95 1019.8
20260905080515 42 157 0.0 0.0 0.00 0.00 0.00 95 1019.8
20260905080416 42 157 0.0 0.0 0.00 0.00 0.00 94 1019.8
20260905075415 42 157 0.0 0.0 0.00 0.00 0.00 94 1019.9
20260905075314 42 157 0.0 0.0 0.00 0.00 0.00 94 1019.8
20260905074316 43 157 0.0 0.0 0.00 0.00 0.00 95 1019.8
20260905072415 43 157 0.0 0.0 0.00 0.00 0.00 94 1019.9
20260905071414 44 157 0.0 0.0 0.00 0.00 0.00 93 1019.8
20260905071316 44 157 0.0 0.0 0.00 0.00 0.00 94 1019.8
20260905065334 44 157 0.0 0.0 0.00 0.00 0.00 93 1019.8
20260905063433 45 157 0.0 0.0 0.00 0.00 0.00 92 1019.7
20260905063332 45 157 0.0 0.0 0.00 0.00 0.00 91 1019.6
20260905062335 45 157 0.0 0.0 0.00 0.00 0.00 93 1019.7
20260905062233 45 157 0.0 0.0 0.00 0.00 0.00 93 1019.6
20260905062133 45 157 0.0 0.0 0.00 0.00 0.00 92 1019.7
20260905061134 45 157 0.0 0.0 0.00 0.00 0.00 93 1019.6
20260905055234 45 157 0.0 0.0 0.00 0.00 0.00 92 1019.5
20260905054235 45 157 0.0 0.0 0.00 0.00 0.00 91 1019.6
20260905054134 45 157 0.0 0.0 0.00 0.00 0.00 91 1019.6
20260905053233 45 157 0.0 0.0 0.00 0.00 0.00 91 1019.6
20260905053132 45 157 0.0 0.0 0.00 0.00 0.00 91 1019.6
20260905052133 46 157 0.0 0.0 0.00 0.00 0.00 90 1019.6
20260905051134 46 157 0.0 0.0 0.00 0.00 0.00 90 1019.6
20260905050233 47 157 0.0 0.0 0.00 0.00 0.00 89 1019.7
20260905045332 47 157 0.0 0.0 0.00 0.00 0.00 89 1019.6
20260905044334 48 157 0.0 0.0 0.00 0.00 0.00 88 1019.6
20260905044232 48 157 0.0 0.0 0.00 0.00 0.00 88 1019.5
20260905043332 48 157 0.0 0.0 0.00 0.00 0.00 88 1019.6
20260905042334 48 157 0.0 0.0 0.00 0.00 0.00 86 1019.4
20260905041334 49 157 0.0 0.0 0.00 0.00 0.00 86 1019.2
20260905035334 50 157 0.0 0.0 0.00 0.00 0.00 84 1019.1
20260905035236 50 157 0.0 0.0 0.00 0.00 0.00 84 1019.0
20260905034235 51 157 0.0 0.0 0.00 0.00 0.00 82 1018.9
20260905033233 51 157 0.0 0.0 0.00 0.00 0.00 82 1018.9
20260905032232 52 157 0.0 0.0 0.00 0.00 0.00 81 1018.8
20260905031235 53 157 0.0 0.0 0.00 0.00 0.00 81 1018.6
20260905030235 53 157 0.0 0.0 0.00 0.00 0.00 78 1018.7
20260905025233 54 157 0.0 0.0 0.00 0.00 0.00 78 1018.5
20260905023234 56 157 0.0 0.0 0.00 0.00 0.00 74 1018.5
20260905023132 56 157 0.0 0.0 0.00 0.00 0.00 74 1018.5
20260905022133 57 157 0.0 0.0 0.00 0.00 0.00 72 1018.6
20260905022032 58 157 0.0 0.0 0.00 0.00 0.00 72 1018.6
20260905021048 58 112 0.0 0.0 0.00 0.00 0.00 71 1018.4
20260905020036 59 225 0.0 2.0 0.00 0.00 0.00 70 1018.4
20260905015133 60 225 0.0 0.0 0.00 0.00 0.00 69 1018.5
20260905014233 61 225 0.0 1.0 0.00 0.00 0.00 66 1018.5
20260905012333 63 180 0.0 0.0 0.00 0.00 0.00 60 1018.5
20260905011335 66 180 0.0 1.0 0.00 0.00 0.00 55 1018.4
20260905005433 67 247 0.0 0.0 0.00 0.00 0.00 52 1018.3
20260905004433 68 244 0.0 2.0 0.00 0.00 0.00 51 1018.0
20260905003433 68 199 2.0 4.0 0.00 0.00 0.00 51 1018.0
20260905001535 69 231 2.0 7.0 0.00 0.00 0.00 47 1018.0
20260905001433 70 229 4.0 8.0 0.00 0.00 0.00 47 1018.0
20260905000435 70 206 0.0 1.0 0.00 0.00 0.00 45 1017.9
20260904235531 70 249 0.0 2.0 0.00 0.00 0.00 46 1018.0
20260904234537 70 157 2.0 6.0 0.00 0.00 0.00 47 1018.0
20260904234434 70 135 1.0 4.0 0.00 0.00 0.00 46 1017.9
20260904233432 71 304 0.0 0.0 0.00 0.00 0.00 45 1018.0
20260904233336 71 328 1.0 4.0 0.00 0.00 0.00 45 1018.0
20260904232432 71 225 2.0 3.0 0.00 0.00 0.00 45 1018.0
20260904231435 70 244 0.0 1.0 0.00 0.00 0.00 44 1018.2
20260904231334 70 274 1.0 4.0 0.00 0.00 0.00 45 1018.2
20260904230334 69 207 3.0 8.0 0.00 0.00 0.00 45 1018.2
20260904225432 70 272 2.0 4.0 0.00 0.00 0.00 47 1018.3
20260904224434 69 214 1.0 3.0 0.00 0.00 0.00 49 1018.4
20260904223532 69 219 1.0 4.0 0.00 0.00 0.00 49 1018.4
20260904222632 69 283 3.0 7.0 0.00 0.00 0.00 47 1018.4
20260904221633 70 162 1.0 3.0 0.00 0.00 0.00 45 1018.4
20260904220635 70 198 1.0 4.0 0.00 0.00 0.00 46 1018.3
20260904215732 70 162 1.0 5.0 0.00 0.00 0.00 46 1018.4
20260904214734 70 284 1.0 5.0 0.00 0.00 0.00 47 1018.3
20260904212733 69 213 2.0 6.0 0.00 0.00 0.00 47 1018.6
20260904211831 69 202 2.0 8.0 0.00 0.00 0.00 48 1018.5
20260904210832 69 206 1.0 6.0 0.00 0.00 0.00 49 1018.6
20260904205849 67 195 2.0 6.0 0.00 0.00 0.00 51 1018.5
20260904205735 67 225 1.0 7.0 0.00 0.00 0.00 50 1018.5
20260904203732 68 222 3.0 6.0 0.00 0.00 0.00 50 1018.4
20260904202735 68 181 3.0 6.0 0.00 0.00 0.00 51 1018.2
20260904201832 67 150 0.0 3.0 0.00 0.00 0.00 52 1018.2
20260904201733 67 140 1.0 4.0 0.00 0.00 0.00 52 1018.2
20260904200734 67 173 4.0 9.0 0.00 0.00 0.00 52 1018.3
20260904200633 67 193 3.0 8.0 0.00 0.00 0.00 52 1018.3
20260904195632 66 260 4.0 8.0 0.00 0.00 0.00 51 1018.1
20260904193732 67 238 6.0 10.0 0.00 0.00 0.00 49 1018.2
20260904192733 68 219 3.0 6.0 0.00 0.00 0.00 48 1018.2
20260904192632 68 240 2.0 5.0 0.00 0.00 0.00 48 1018.2
20260904191633 68 242 3.0 10.0 0.00 0.00 0.00 48 1018.0
20260904190733 67 247 1.0 4.0 0.00 0.00 0.00 46 1018.2
20260904185732 68 259 3.0 4.0 0.00 0.00 0.00 45 1018.2
20260904184731 68 235 1.0 4.0 0.00 0.00 0.00 46 1018.1
20260904183733 67 153 2.0 5.0 0.00 0.00 0.00 48 1018.3
20260904181832 66 144 1.0 4.0 0.00 0.00 0.00 47 1018.2
20260904180831 66 94 0.0 2.0 0.00 0.00 0.00 46 1018.0
20260904175832 66 145 0.0 2.0 0.00 0.00 0.00 45 1017.9
20260904173832 66 96 4.0 8.0 0.00 0.00 0.00 44 1017.9
20260904171932 66 112 0.0 2.0 0.00 0.00 0.00 44 1017.8
20260904170933 66 22 2.0 4.0 0.00 0.00 0.00 44 1017.7
20260904165932 65 147 1.0 5.0 0.00 0.00 0.00 46 1017.8
20260904164032 66 7 1.0 3.0 0.00 0.00 0.00 47 1017.9
20260904163132 64 45 0.0 1.0 0.00 0.00 0.00 49 1017.9
20260904162133 63 180 0.0 0.0 0.00 0.00 0.00 54 1017.9
20260904161132 61 225 0.0 0.0 0.00 0.00 0.00 60 1017.7
20260904160133 59 225 0.0 0.0 0.00 0.00 0.00 61 1018.0
20260904155131 56 225 0.0 0.0 0.00 0.00 0.00 70 1018.0
20260904154134 53 225 0.0 0.0 0.00 0.00 0.00 74 1018.2
20260904153231 51 225 0.0 0.0 0.00 0.00 0.00 79 1018.2
20260904153133 51 225 0.0 0.0 0.00 0.00 0.00 81 1018.3
20260904145131 39 225 0.0 0.0 0.00 0.00 0.00 98 1017.8
20260904144132 38 225 0.0 0.0 0.00 0.00 0.00 97 1017.6
20260904143133 37 225 0.0 0.0 0.00 0.00 0.00 97 1017.6
20260904143035 37 225 0.0 0.0 0.00 0.00 0.00 96 1017.6
20260904142033 37 225 0.0 0.0 0.00 0.00 0.00 97 1017.6
20260904141931 37 225 0.0 0.0 0.00 0.00 0.00 97 1017.6
20260904140932 36 225 0.0 0.0 0.00 0.00 0.00 97 1017.4
20260904135934 36 225 0.0 0.0 0.00 0.00 0.00 97 1017.4
20260904135834 36 225 0.0 0.0 0.00 0.00 0.00 97 1017.4
20260904134931 36 225 0.0 0.0 0.00 0.00 0.00 97 1017.4
20260904133932 36 225 0.0 0.0 0.00 0.00 0.00 96 1017.2
20260904132934 36 225 0.0 0.0 0.00 0.00 0.00 97 1017.1
20260904132833 36 225 0.0 0.0 0.00 0.00 0.00 97 1017.1
20260904131932 36 225 0.0 0.0 0.00 0.00 0.00 96 1017.1
20260904130932 36 225 0.0 0.0 0.00 0.00 0.00 96 1017.1
20260904130031 37 225 0.0 0.0 0.00 0.00 0.00 97 1017.1
20260904125032 37 225 0.0 0.0 0.00 0.00 0.00 97 1016.9
20260904122033 37 225 0.0 0.0 0.00 0.00 0.00 96 1017.0
20260904121031 37 225 0.0 0.0 0.00 0.00 0.00 96 1017.1
20260904115933 37 225 0.0 0.0 0.00 0.00 0.00 96 1017.1
20260904114932 37 225 0.0 0.0 0.00 0.00 0.00 96 1017.2
20260904113932 37 225 0.0 0.0 0.00 0.00 0.00 94 1017.1